AirNav   Duncan Aviation - Near you to keep you flying
 
 544 users online  

38WA Blakely Island Airport
Blakely Island, Washington, USA

GOING TO BLAKELY ISLAND?


FAA INFORMATION EFFECTIVE 26 JANUARY 2023

Location

FAA Identifier: 38WA
Lat/Long: 48-34-44.3700N 122-49-34.6470W
48-34.739500N 122-49.577450W
48.5789917,-122.8262908
(estimated)
Elevation: 66 ft. / 20.1 m (surveyed)
Variation: 21E (1985)
Time zone: UTC -8 (UTC -7 during Daylight Saving Time)
Zip code: 98222

Airport Operations

Airport use: Private use. Permission required prior to landing
Activation date: 01/1948
Control tower: no
ARTCC: SEATTLE CENTER
FSS: SEATTLE FLIGHT SERVICE STATION
Attendance: CONTINUOUS
Wind indicator: lighted
Segmented circle: no
Lights: ACTVT MIRL RY 01/19 - 122.9.

Airport Communications

WX AWOS-3 at ORS (8 nm NW): 135.425 (360-376-6045)
WX ASOS at FHR (9 nm SW): 135.675 (360-378-8491)
WX ASOS at NUW (15 nm SE): PHONE 360-257-8813
WX ASOS at BLI (17 nm NE): PHONE 360-671-8688
WX AWOS-3 at BVS (17 nm E): 121.125 (360-757-7767)
  • MULTICOM FREQ 122.9.

Nearby radio navigation aids

VOR radial/distance  VOR name  Freq  Var
CVVr330/20.5PENN COVE VOR/DME117.2019E
HUHr184/24.1WHATCOM VORTAC113.0020E
YYJr092/27.6VICTORIA VOR/DME113.7017E
YVRr140/32.5VANCOUVER VOR/DME115.9017E

 
NDB name  Hdg/Dist  Freq  Var  ID
FRIDAY HARBOR046/8.828417EFHR ..-. .... .-.
SKAGIT/BAY VIEW276/17.524016EBVS -... ...- ...

Airport Services

Runway Information

Runway 1/19

Dimensions: 2200 x 40 ft. / 671 x 12 m
ADDNL 200 X 40' OVRNS & TURBC BOTH ENDS RWY 01/19.
Surface: asphalt
Runway edge lights: medium intensity
RUNWAY 1  RUNWAY 19
Traffic pattern: leftright
Displaced threshold: 252 ft.122 ft.
Obstructions: trees, 2000 ft. from runwaytrees, 2000 ft. from runway

Airport Ownership and Management from official FAA records

Ownership: Privately-owned
Owner: BLAKELY ISLAND MAINT COM
355 BLAKELY DR
BLAKELY ISLAND, WA 98222
Manager: DAN ROACH
466 MARINE DR
BLAKLEY ISLAND, WA 98222
Phone 206-276-3054
FONE 206-276-3054 DECRRR@GMAIL.COM. SEC CTC JOEL STEWARD 509-435-7591 360-375-6662.

Airport Operational Statistics

Aircraft based on the field: 11
Single engine airplanes: 5
Multi engine airplanes: 6
    

Additional Remarks

TREES BOTH SIDES OF RWY PENT TRSNL SFC.
WATCH FOR DEER ON RWY.
MIDDLE RY 01/19 HIGHER THAN EITHER END. CHECK ARPT TFC FM RUN-UP PAD CENTER OF FLD BEFORE TKOF.
FOR CD CTC WHIDBEY APCH AT 360-257-3310.

Instrument Procedures

There are no published instrument procedures at 38WA.

Some nearby airports with instrument procedures:

KORS - Orcas Island Airport (8 nm NW)
KFHR - Friday Harbor Airport (9 nm SW)
KNUW - Whidbey Island Naval Air Station (Ault Field) Airport (15 nm SE)
KBLI - Bellingham International Airport (17 nm NE)
KBVS - Skagit Regional Airport (17 nm E)
 
Loc | Ops | Rwys | IFR | FBO | Links
Com | Nav | Svcs | Stats | Notes
Area around 38WA (Blakely Island Airport)
 
Road maps at: MapQuest Bing Google
 
Aerial photo
WARNING: Photo may not be current or correct
Aerial photo of 38WA (Blakely Island Airport)
Photo by Domenick Venezia, 2003-09

Do you have a better or more recent aerial photo of Blakely Island Airport that you would like to share? If so, please send us your photo.

 
Sectional chart

 
Airport distance calculator
Flying to Blakely Island Airport? Find the distance to fly.

From to 38WA

Sunrise and sunset
Times for 28-Jan-2023
 Local
(UTC-8)
 Zulu
(UTC)
Morning civil twilight07:1315:13
Sunrise07:4715:47
Sunset17:0201:02
Evening civil twilight17:3601:36

Current date and time
Zulu (UTC)  29-Jan-2023 07:05:57
Local (UTC-8)  28-Jan-2023 23:05:57
 
METAR
KORS 
8nm N 
290655Z AUTO 02007G21KT 360V100 10SM CLR 02/M08 A3041 RMK AO2
KFHR 
9nm SW 
290653Z AUTO 02011G21KT 10SM CLR 02/M10 A3039 RMK AO2 SLP292 T00171100 $
CWEZ 
14nm NW 
290600Z AUTO 05026G33KT 03/M09 RMK AO1 PK WND 05037/0506 SLP286 T00271089 53035
KNUW 
15nm SE 
290653Z 34008KT 10SM FEW045 02/M06 A3038 RMK SLP288 T00171056
CWZO 
16nm W 
290600Z AUTO 06031G37KT RMK AO1 PK WND 06037/0558
KBVS 
18nm E 
290655Z AUTO 02016KT 10SM CLR 02/M10 A3035 RMK A01
KBLI 
18nm NE 
290653Z AUTO 04019G42KT 10SM CLR 01/M11 A3037 RMK AO2 PK WND 04042/0648 SLP294 T00111106
CWYJ 
20nm SW 
290600Z AUTO 02010G17KT 02/M09 RMK AO1 PK WND 03020/0546 SLP285 T00241091 53037
TAF
KNUW 
15nm SE 
2823/2923 01010KT 9999 FEW020 SCT150 QNH3013INS FM290100 03012G17KT 9999 FEW080 FEW150 520004 QNH3016INS FM290700 04009KT 9999 FEW150 500000 QNH3030INS FM291800 VRB06KT 9999 FEW200 QNH3038INS TM03/2912Z T06/2923Z FS30205
KBLI 
18nm NE 
290521Z 2906/3006 03020G32KT P6SM SKC FM291600 03015G25KT P6SM SKC FM292200 03011KT P6SM SKC FM300400 02006KT P6SM SCT250
NOTAMs
Click for the latest NOTAMs
NOTAMs are issued by the DoD/FAA and will open in a separate window not controlled by AirNav.

 

 
 

Would you like to see your business listed on this page?

 If your business provides an interesting product or service to pilots, flight crews, aircraft, or users of the Blakely Island Airport, you should consider listing it here.  To start the listing process, click on the button below
 
Add a business
 

Other Pages about Blakely Island Airport

www.rockisland.com/...
 
Update a link
 
Copyright © AirNav, LLC. All rights reserved. Privacy Policy  Contact